owner,sensor,date,latitude,longitude,sea_surface_height_above_sea_level,qcFlag 
TCOON,ioos:station:TCOON:518:1,2017-09-01T00:18:00Z,29.5150,-94.5133,1.38,1111122 
TCOON,ioos:station:TCOON:518:1,2017-09-01T01:18:00Z,29.5150,-94.5133,1.353,1111122 
TCOON,ioos:station:TCOON:518:1,2017-09-01T02:18:00Z,29.5150,-94.5133,1.341,1111122 
TCOON,ioos:station:TCOON:518:1,2017-09-01T03:18:00Z,29.5150,-94.5133,1.339,1111122 
TCOON,ioos:station:TCOON:518:1,2017-09-01T04:18:00Z,29.5150,-94.5133,1.345,1111122 
TCOON,ioos:station:TCOON:518:1,2017-09-01T05:18:00Z,29.5150,-94.5133,1.368,1111122 
TCOON,ioos:station:TCOON:518:1,2017-09-01T06:18:00Z,29.5150,-94.5133,1.407,1111122 
TCOON,ioos:station:TCOON:518:1,2017-09-01T07:18:00Z,29.5150,-94.5133,1.474,1111122 
TCOON,ioos:station:TCOON:518:1,2017-09-01T08:18:00Z,29.5150,-94.5133,1.544,1111122 
TCOON,ioos:station:TCOON:518:1,2017-09-01T09:18:00Z,29.5150,-94.5133,1.586,1111122 
TCOON,ioos:station:TCOON:518:1,2017-09-01T10:18:00Z,29.5150,-94.5133,1.6,1111122 
TCOON,ioos:station:TCOON:518:1,2017-09-01T11:18:00Z,29.5150,-94.5133,1.602,1111122 
TCOON,ioos:station:TCOON:518:1,2017-09-01T12:18:00Z,29.5150,-94.5133,1.607,1111122 
TCOON,ioos:station:TCOON:518:1,2017-09-01T13:18:00Z,29.5150,-94.5133,1.609,1111122 
TCOON,ioos:station:TCOON:518:1,2017-09-01T14:18:00Z,29.5150,-94.5133,1.6,1111122 
TCOON,ioos:station:TCOON:518:1,2017-09-01T15:18:00Z,29.5150,-94.5133,1.578,1111122 
TCOON,ioos:station:TCOON:518:1,2017-09-01T16:18:00Z,29.5150,-94.5133,1.569,1111122 
TCOON,ioos:station:TCOON:518:1,2017-09-01T17:18:00Z,29.5150,-94.5133,1.558,1111122 
TCOON,ioos:station:TCOON:518:1,2017-09-01T18:18:00Z,29.5150,-94.5133,1.538,1111122 
TCOON,ioos:station:TCOON:518:1,2017-09-01T19:18:00Z,29.5150,-94.5133,1.539,1111122 
TCOON,ioos:station:TCOON:518:1,2017-09-01T20:18:00Z,29.5150,-94.5133,1.537,1111122 
TCOON,ioos:station:TCOON:518:1,2017-09-01T21:18:00Z,29.5150,-94.5133,1.533,1111122 
TCOON,ioos:station:TCOON:518:1,2017-09-01T22:18:00Z,29.5150,-94.5133,1.516,1111122 
TCOON,ioos:station:TCOON:518:1,2017-09-02T00:18:00Z,29.5150,-94.5133,1.461,1111122 
TCOON,ioos:station:TCOON:518:1,2017-09-02T01:18:00Z,29.5150,-94.5133,1.441,1111122 
TCOON,ioos:station:TCOON:518:1,2017-09-02T02:18:00Z,29.5150,-94.5133,1.414,1111122 
TCOON,ioos:station:TCOON:518:1,2017-09-02T03:18:00Z,29.5150,-94.5133,1.403,1111122 
TCOON,ioos:station:TCOON:518:1,2017-09-02T04:18:00Z,29.5150,-94.5133,1.398,1111122 
TCOON,ioos:station:TCOON:518:1,2017-09-02T05:18:00Z,29.5150,-94.5133,1.412,1111122 
TCOON,ioos:station:TCOON:518:1,2017-09-02T06:18:00Z,29.5150,-94.5133,1.441,1111122 
TCOON,ioos:station:TCOON:518:1,2017-09-02T07:18:00Z,29.5150,-94.5133,1.503,1111122 
TCOON,ioos:station:TCOON:518:1,2017-09-02T08:18:00Z,29.5150,-94.5133,1.585,1111122 
TCOON,ioos:station:TCOON:518:1,2017-09-02T09:18:00Z,29.5150,-94.5133,1.638,1111122 
TCOON,ioos:station:TCOON:518:1,2017-09-02T10:18:00Z,29.5150,-94.5133,1.656,1111122 
TCOON,ioos:station:TCOON:518:1,2017-09-02T11:18:00Z,29.5150,-94.5133,1.672,1111122 
TCOON,ioos:station:TCOON:518:1,2017-09-02T12:18:00Z,29.5150,-94.5133,1.682,1111122 
TCOON,ioos:station:TCOON:518:1,2017-09-02T13:18:00Z,29.5150,-94.5133,1.69,1111122 
TCOON,ioos:station:TCOON:518:1,2017-09-02T14:18:00Z,29.5150,-94.5133,1.697,1111122 
TCOON,ioos:station:TCOON:518:1,2017-09-02T15:18:00Z,29.5150,-94.5133,1.665,1111122 
TCOON,ioos:station:TCOON:518:1,2017-09-02T16:18:00Z,29.5150,-94.5133,1.627,1111122 
TCOON,ioos:station:TCOON:518:1,2017-09-02T17:18:00Z,29.5150,-94.5133,1.604,1111122 
TCOON,ioos:station:TCOON:518:1,2017-09-02T18:18:00Z,29.5150,-94.5133,1.592,1111122 
TCOON,ioos:station:TCOON:518:1,2017-09-02T19:18:00Z,29.5150,-94.5133,1.581,1111122 
TCOON,ioos:station:TCOON:518:1,2017-09-02T20:18:00Z,29.5150,-94.5133,1.592,1111122 
TCOON,ioos:station:TCOON:518:1,2017-09-02T21:18:00Z,29.5150,-94.5133,1.582,1111122 
TCOON,ioos:station:TCOON:518:1,2017-09-02T22:18:00Z,29.5150,-94.5133,1.547,1111122 
TCOON,ioos:station:TCOON:518:1,2017-09-02T23:18:00Z,29.5150,-94.5133,1.522,1111122 
TCOON,ioos:station:TCOON:518:1,2017-09-03T00:18:00Z,29.5150,-94.5133,1.472,1111122 
TCOON,ioos:station:TCOON:518:1,2017-09-03T01:18:00Z,29.5150,-94.5133,1.43,1111122 
TCOON,ioos:station:TCOON:518:1,2017-09-03T02:18:00Z,29.5150,-94.5133,1.4,1111122 
TCOON,ioos:station:TCOON:518:1,2017-09-03T03:18:00Z,29.5150,-94.5133,1.377,1111122 
TCOON,ioos:station:TCOON:518:1,2017-09-03T04:18:00Z,29.5150,-94.5133,1.366,1111122 
TCOON,ioos:station:TCOON:518:1,2017-09-03T05:18:00Z,29.5150,-94.5133,1.369,1111122 
TCOON,ioos:station:TCOON:518:1,2017-09-03T06:18:00Z,29.5150,-94.5133,1.381,1111122 
TCOON,ioos:station:TCOON:518:1,2017-09-03T07:18:00Z,29.5150,-94.5133,1.436,1111122 
TCOON,ioos:station:TCOON:518:1,2017-09-03T08:18:00Z,29.5150,-94.5133,1.515,1111122 
TCOON,ioos:station:TCOON:518:1,2017-09-03T09:18:00Z,29.5150,-94.5133,1.582,1111122 
TCOON,ioos:station:TCOON:518:1,2017-09-03T10:18:00Z,29.5150,-94.5133,1.619,1111122 
TCOON,ioos:station:TCOON:518:1,2017-09-03T11:18:00Z,29.5150,-94.5133,1.661,1111122 
TCOON,ioos:station:TCOON:518:1,2017-09-03T12:18:00Z,29.5150,-94.5133,1.692,1111122 
TCOON,ioos:station:TCOON:518:1,2017-09-03T13:18:00Z,29.5150,-94.5133,1.706,1111122 
TCOON,ioos:station:TCOON:518:1,2017-09-03T14:18:00Z,29.5150,-94.5133,1.695,1111122 
TCOON,ioos:station:TCOON:518:1,2017-09-03T15:18:00Z,29.5150,-94.5133,1.669,1111122 
TCOON,ioos:station:TCOON:518:1,2017-09-03T16:18:00Z,29.5150,-94.5133,1.642,1111122 
TCOON,ioos:station:TCOON:518:1,2017-09-03T17:18:00Z,29.5150,-94.5133,1.616,1111122 
TCOON,ioos:station:TCOON:518:1,2017-09-03T18:18:00Z,29.5150,-94.5133,1.589,1111122 
TCOON,ioos:station:TCOON:518:1,2017-09-03T19:18:00Z,29.5150,-94.5133,1.583,1111122 
TCOON,ioos:station:TCOON:518:1,2017-09-03T20:18:00Z,29.5150,-94.5133,1.564,1111122 
TCOON,ioos:station:TCOON:518:1,2017-09-03T21:18:00Z,29.5150,-94.5133,1.553,1111122 
TCOON,ioos:station:TCOON:518:1,2017-09-03T22:18:00Z,29.5150,-94.5133,1.54,1111122 
TCOON,ioos:station:TCOON:518:1,2017-09-03T23:18:00Z,29.5150,-94.5133,1.529,1111122 
TCOON,ioos:station:TCOON:518:1,2017-09-04T00:18:00Z,29.5150,-94.5133,1.485,1111122 
TCOON,ioos:station:TCOON:518:1,2017-09-04T01:18:00Z,29.5150,-94.5133,1.427,1111122 
TCOON,ioos:station:TCOON:518:1,2017-09-04T02:18:00Z,29.5150,-94.5133,1.398,1111122 
TCOON,ioos:station:TCOON:518:1,2017-09-04T03:18:00Z,29.5150,-94.5133,1.369,1111122 
TCOON,ioos:station:TCOON:518:1,2017-09-04T04:18:00Z,29.5150,-94.5133,1.35,1111122 
TCOON,ioos:station:TCOON:518:1,2017-09-04T05:18:00Z,29.5150,-94.5133,1.347,1111122 
TCOON,ioos:station:TCOON:518:1,2017-09-04T06:18:00Z,29.5150,-94.5133,1.364,1111122 
TCOON,ioos:station:TCOON:518:1,2017-09-04T07:18:00Z,29.5150,-94.5133,1.409,1111122 
TCOON,ioos:station:TCOON:518:1,2017-09-04T08:18:00Z,29.5150,-94.5133,1.472,1111122 
TCOON,ioos:station:TCOON:518:1,2017-09-04T09:18:00Z,29.5150,-94.5133,1.535,1111122 
TCOON,ioos:station:TCOON:518:1,2017-09-04T10:18:00Z,29.5150,-94.5133,1.613,1111122 
TCOON,ioos:station:TCOON:518:1,2017-09-04T11:18:00Z,29.5150,-94.5133,1.669,1111122 
TCOON,ioos:station:TCOON:518:1,2017-09-04T12:18:00Z,29.5150,-94.5133,1.706,1111122 
TCOON,ioos:station:TCOON:518:1,2017-09-04T13:18:00Z,29.5150,-94.5133,1.721,1111122 
TCOON,ioos:station:TCOON:518:1,2017-09-04T14:18:00Z,29.5150,-94.5133,1.714,1111122 
TCOON,ioos:station:TCOON:518:1,2017-09-04T15:18:00Z,29.5150,-94.5133,1.696,1111122 
TCOON,ioos:station:TCOON:518:1,2017-09-04T16:18:00Z,29.5150,-94.5133,1.698,1111122 
TCOON,ioos:station:TCOON:518:1,2017-09-04T17:18:00Z,29.5150,-94.5133,1.676,1111122 
TCOON,ioos:station:TCOON:518:1,2017-09-04T18:18:00Z,29.5150,-94.5133,1.653,1111122 
TCOON,ioos:station:TCOON:518:1,2017-09-04T19:18:00Z,29.5150,-94.5133,1.632,1111122 
TCOON,ioos:station:TCOON:518:1,2017-09-04T20:18:00Z,29.5150,-94.5133,1.626,1111122 
TCOON,ioos:station:TCOON:518:1,2017-09-04T21:18:00Z,29.5150,-94.5133,1.616,1111122 
TCOON,ioos:station:TCOON:518:1,2017-09-04T22:18:00Z,29.5150,-94.5133,1.628,1111122 
TCOON,ioos:station:TCOON:518:1,2017-09-05T00:18:00Z,29.5150,-94.5133,1.598,1111122 
TCOON,ioos:station:TCOON:518:1,2017-09-05T01:18:00Z,29.5150,-94.5133,1.554,1111122 
TCOON,ioos:station:TCOON:518:1,2017-09-05T02:18:00Z,29.5150,-94.5133,1.501,1111122 
TCOON,ioos:station:TCOON:518:1,2017-09-05T03:18:00Z,29.5150,-94.5133,1.467,1111122 
TCOON,ioos:station:TCOON:518:1,2017-09-05T04:18:00Z,29.5150,-94.5133,1.422,1111122 
TCOON,ioos:station:TCOON:518:1,2017-09-05T05:18:00Z,29.5150,-94.5133,1.403,1111122 
TCOON,ioos:station:TCOON:518:1,2017-09-05T06:18:00Z,29.5150,-94.5133,1.361,1111122 
TCOON,ioos:station:TCOON:518:1,2017-09-05T07:18:00Z,29.5150,-94.5133,1.41,1111122 
TCOON,ioos:station:TCOON:518:1,2017-09-05T08:18:00Z,29.5150,-94.5133,1.47,1111122 
TCOON,ioos:station:TCOON:518:1,2017-09-05T09:18:00Z,29.5150,-94.5133,1.576,1111122 
TCOON,ioos:station:TCOON:518:1,2017-09-05T10:18:00Z,29.5150,-94.5133,1.601,1111122 
TCOON,ioos:station:TCOON:518:1,2017-09-05T11:18:00Z,29.5150,-94.5133,1.652,1111122 
TCOON,ioos:station:TCOON:518:1,2017-09-05T12:18:00Z,29.5150,-94.5133,1.683,1111122 
TCOON,ioos:station:TCOON:518:1,2017-09-05T13:18:00Z,29.5150,-94.5133,1.723,1111122 
TCOON,ioos:station:TCOON:518:1,2017-09-05T14:18:00Z,29.5150,-94.5133,1.712,1111122 
TCOON,ioos:station:TCOON:518:1,2017-09-05T15:30:00Z,29.5150,-94.5133,1.686,1111122 
TCOON,ioos:station:TCOON:518:1,2017-09-05T16:18:00Z,29.5150,-94.5133,1.682,1111122 
TCOON,ioos:station:TCOON:518:1,2017-09-05T17:24:00Z,29.5150,-94.5133,1.678,1111122 
TCOON,ioos:station:TCOON:518:1,2017-09-05T18:18:00Z,29.5150,-94.5133,1.662,1111122 
TCOON,ioos:station:TCOON:518:1,2017-09-05T19:18:00Z,29.5150,-94.5133,1.681,1111122 
TCOON,ioos:station:TCOON:518:1,2017-09-05T20:18:00Z,29.5150,-94.5133,1.649,1111122 
TCOON,ioos:station:TCOON:518:1,2017-09-05T21:18:00Z,29.5150,-94.5133,1.632,1111122 
TCOON,ioos:station:TCOON:518:1,2017-09-05T22:18:00Z,29.5150,-94.5133,1.628,1111122 
TCOON,ioos:station:TCOON:518:1,2017-09-05T23:18:00Z,29.5150,-94.5133,1.639,1111122 
TCOON,ioos:station:TCOON:518:1,2017-09-06T00:18:00Z,29.5150,-94.5133,1.66,1111122 
TCOON,ioos:station:TCOON:518:1,2017-09-06T01:18:00Z,29.5150,-94.5133,1.641,1111122 
TCOON,ioos:station:TCOON:518:1,2017-09-07T14:36:00Z,29.5150,-94.5133,1.626,1111122 
TCOON,ioos:station:TCOON:518:1,2017-09-07T15:18:00Z,29.5150,-94.5133,1.607,1111122 
TCOON,ioos:station:TCOON:518:1,2017-09-07T16:18:00Z,29.5150,-94.5133,1.604,1111122 
TCOON,ioos:station:TCOON:518:1,2017-09-07T17:18:00Z,29.5150,-94.5133,1.621,1111122 
TCOON,ioos:station:TCOON:518:1,2017-09-07T18:18:00Z,29.5150,-94.5133,1.608,1111122 
TCOON,ioos:station:TCOON:518:1,2017-09-07T19:18:00Z,29.5150,-94.5133,1.602,1111122 
TCOON,ioos:station:TCOON:518:1,2017-09-07T20:18:00Z,29.5150,-94.5133,1.618,1111122 
TCOON,ioos:station:TCOON:518:1,2017-09-07T21:18:00Z,29.5150,-94.5133,1.619,1111122 
TCOON,ioos:station:TCOON:518:1,2017-09-07T22:18:00Z,29.5150,-94.5133,1.652,1111122 
TCOON,ioos:station:TCOON:518:1,2017-09-07T23:18:00Z,29.5150,-94.5133,1.734,1111122 
TCOON,ioos:station:TCOON:518:1,2017-09-08T00:18:00Z,29.5150,-94.5133,1.774,1111122 
TCOON,ioos:station:TCOON:518:1,2017-09-08T01:18:00Z,29.5150,-94.5133,1.791,1111122 
TCOON,ioos:station:TCOON:518:1,2017-09-08T02:18:00Z,29.5150,-94.5133,1.785,1111122 
TCOON,ioos:station:TCOON:518:1,2017-09-08T03:18:00Z,29.5150,-94.5133,1.766,1111122 
TCOON,ioos:station:TCOON:518:1,2017-09-08T04:18:00Z,29.5150,-94.5133,1.713,1111122 
TCOON,ioos:station:TCOON:518:1,2017-09-08T05:18:00Z,29.5150,-94.5133,1.663,1111122 
TCOON,ioos:station:TCOON:518:1,2017-09-08T06:18:00Z,29.5150,-94.5133,1.608,1111122 
TCOON,ioos:station:TCOON:518:1,2017-09-08T07:18:00Z,29.5150,-94.5133,1.585,1111122 
TCOON,ioos:station:TCOON:518:1,2017-09-08T08:18:00Z,29.5150,-94.5133,1.551,1111122 
TCOON,ioos:station:TCOON:518:1,2017-09-08T09:18:00Z,29.5150,-94.5133,1.549,1111122 
TCOON,ioos:station:TCOON:518:1,2017-09-08T10:18:00Z,29.5150,-94.5133,1.576,1111122 
TCOON,ioos:station:TCOON:518:1,2017-09-08T11:18:00Z,29.5150,-94.5133,1.638,1111122 
TCOON,ioos:station:TCOON:518:1,2017-09-08T12:18:00Z,29.5150,-94.5133,1.696,1111122 
TCOON,ioos:station:TCOON:518:1,2017-09-08T13:18:00Z,29.5150,-94.5133,1.707,1111122 
TCOON,ioos:station:TCOON:518:1,2017-09-08T14:18:00Z,29.5150,-94.5133,1.701,1111122 
TCOON,ioos:station:TCOON:518:1,2017-09-08T15:18:00Z,29.5150,-94.5133,1.704,1111122 
TCOON,ioos:station:TCOON:518:1,2017-09-08T16:18:00Z,29.5150,-94.5133,1.677,1111122 
TCOON,ioos:station:TCOON:518:1,2017-09-08T17:18:00Z,29.5150,-94.5133,1.639,1111122 
TCOON,ioos:station:TCOON:518:1,2017-09-08T18:18:00Z,29.5150,-94.5133,1.625,1111122 
TCOON,ioos:station:TCOON:518:1,2017-09-08T19:18:00Z,29.5150,-94.5133,1.606,1111122 
TCOON,ioos:station:TCOON:518:1,2017-09-08T20:18:00Z,29.5150,-94.5133,1.605,1111122 
TCOON,ioos:station:TCOON:518:1,2017-09-08T21:18:00Z,29.5150,-94.5133,1.601,1111122 
TCOON,ioos:station:TCOON:518:1,2017-09-08T22:18:00Z,29.5150,-94.5133,1.616,1111122 
TCOON,ioos:station:TCOON:518:1,2017-09-08T23:18:00Z,29.5150,-94.5133,1.661,1111122 
TCOON,ioos:station:TCOON:518:1,2017-09-09T00:18:00Z,29.5150,-94.5133,1.709,1111122 
TCOON,ioos:station:TCOON:518:1,2017-09-09T01:18:00Z,29.5150,-94.5133,1.735,1111122 
TCOON,ioos:station:TCOON:518:1,2017-09-09T02:18:00Z,29.5150,-94.5133,1.744,1111122 
TCOON,ioos:station:TCOON:518:1,2017-09-09T03:18:00Z,29.5150,-94.5133,1.727,1111122 
TCOON,ioos:station:TCOON:518:1,2017-09-09T04:18:00Z,29.5150,-94.5133,1.713,1111122 
TCOON,ioos:station:TCOON:518:1,2017-09-09T05:18:00Z,29.5150,-94.5133,1.694,1111122 
TCOON,ioos:station:TCOON:518:1,2017-09-09T06:18:00Z,29.5150,-94.5133,1.658,1111122 
TCOON,ioos:station:TCOON:518:1,2017-09-09T07:18:00Z,29.5150,-94.5133,1.612,1111122 
TCOON,ioos:station:TCOON:518:1,2017-09-09T08:18:00Z,29.5150,-94.5133,1.581,1111122 
TCOON,ioos:station:TCOON:518:1,2017-09-09T09:18:00Z,29.5150,-94.5133,1.552,1111122 
TCOON,ioos:station:TCOON:518:1,2017-09-09T10:18:00Z,29.5150,-94.5133,1.545,1111122 
TCOON,ioos:station:TCOON:518:1,2017-09-09T11:18:00Z,29.5150,-94.5133,1.576,1111122 
TCOON,ioos:station:TCOON:518:1,2017-09-09T12:18:00Z,29.5150,-94.5133,1.632,1111122 
TCOON,ioos:station:TCOON:518:1,2017-09-09T13:18:00Z,29.5150,-94.5133,1.677,1111122 
TCOON,ioos:station:TCOON:518:1,2017-09-09T14:18:00Z,29.5150,-94.5133,1.698,1111122 
TCOON,ioos:station:TCOON:518:1,2017-09-09T15:18:00Z,29.5150,-94.5133,1.703,1111122 
TCOON,ioos:station:TCOON:518:1,2017-09-09T16:18:00Z,29.5150,-94.5133,1.715,1111122 
TCOON,ioos:station:TCOON:518:1,2017-09-09T17:18:00Z,29.5150,-94.5133,1.697,1111122 
TCOON,ioos:station:TCOON:518:1,2017-09-09T18:18:00Z,29.5150,-94.5133,1.655,1111122 
TCOON,ioos:station:TCOON:518:1,2017-09-09T19:18:00Z,29.5150,-94.5133,1.613,1111122 
TCOON,ioos:station:TCOON:518:1,2017-09-09T20:18:00Z,29.5150,-94.5133,1.599,1111122 
TCOON,ioos:station:TCOON:518:1,2017-09-09T21:18:00Z,29.5150,-94.5133,1.59,1111122 
TCOON,ioos:station:TCOON:518:1,2017-09-09T22:18:00Z,29.5150,-94.5133,1.603,1111122 
TCOON,ioos:station:TCOON:518:1,2017-09-09T23:18:00Z,29.5150,-94.5133,1.655,1111122 
TCOON,ioos:station:TCOON:518:1,2017-09-10T00:18:00Z,29.5150,-94.5133,1.732,1111122 
TCOON,ioos:station:TCOON:518:1,2017-09-10T01:18:00Z,29.5150,-94.5133,1.776,1111122 
TCOON,ioos:station:TCOON:518:1,2017-09-10T02:18:00Z,29.5150,-94.5133,1.805,1111122 
TCOON,ioos:station:TCOON:518:1,2017-09-10T03:18:00Z,29.5150,-94.5133,1.832,1111122 
TCOON,ioos:station:TCOON:518:1,2017-09-10T04:18:00Z,29.5150,-94.5133,1.816,1111122 
TCOON,ioos:station:TCOON:518:1,2017-09-10T05:18:00Z,29.5150,-94.5133,1.775,1111122 
TCOON,ioos:station:TCOON:518:1,2017-09-10T06:18:00Z,29.5150,-94.5133,1.732,1111122 
TCOON,ioos:station:TCOON:518:1,2017-09-10T07:18:00Z,29.5150,-94.5133,1.689,1111122 
TCOON,ioos:station:TCOON:518:1,2017-09-10T08:18:00Z,29.5150,-94.5133,1.638,1111122 
TCOON,ioos:station:TCOON:518:1,2017-09-10T09:18:00Z,29.5150,-94.5133,1.603,1111122 
TCOON,ioos:station:TCOON:518:1,2017-09-10T10:18:00Z,29.5150,-94.5133,1.601,1111122 
TCOON,ioos:station:TCOON:518:1,2017-09-10T11:18:00Z,29.5150,-94.5133,1.592,1111122 
TCOON,ioos:station:TCOON:518:1,2017-09-10T12:18:00Z,29.5150,-94.5133,1.595,1111122 
TCOON,ioos:station:TCOON:518:1,2017-09-10T13:18:00Z,29.5150,-94.5133,1.699,1111122 
TCOON,ioos:station:TCOON:518:1,2017-09-10T14:18:00Z,29.5150,-94.5133,1.696,1111122 
TCOON,ioos:station:TCOON:518:1,2017-09-10T15:18:00Z,29.5150,-94.5133,1.671,1111122 
TCOON,ioos:station:TCOON:518:1,2017-09-10T16:18:00Z,29.5150,-94.5133,1.673,1111122 
TCOON,ioos:station:TCOON:518:1,2017-09-10T17:18:00Z,29.5150,-94.5133,1.634,1111122 
TCOON,ioos:station:TCOON:518:1,2017-09-10T18:18:00Z,29.5150,-94.5133,1.554,1111122 
TCOON,ioos:station:TCOON:518:1,2017-09-10T19:18:00Z,29.5150,-94.5133,1.526,1111122 
TCOON,ioos:station:TCOON:518:1,2017-09-10T20:24:00Z,29.5150,-94.5133,1.464,1111122 
TCOON,ioos:station:TCOON:518:1,2017-09-10T21:18:00Z,29.5150,-94.5133,1.443,1111122 
TCOON,ioos:station:TCOON:518:1,2017-09-10T22:18:00Z,29.5150,-94.5133,1.421,1111122 
TCOON,ioos:station:TCOON:518:1,2017-09-10T23:18:00Z,29.5150,-94.5133,1.446,1111122 
TCOON,ioos:station:TCOON:518:1,2017-09-11T00:18:00Z,29.5150,-94.5133,1.505,1111122 
TCOON,ioos:station:TCOON:518:1,2017-09-11T01:18:00Z,29.5150,-94.5133,1.609,1111122 
TCOON,ioos:station:TCOON:518:1,2017-09-11T02:18:00Z,29.5150,-94.5133,1.691,1111122 
TCOON,ioos:station:TCOON:518:1,2017-09-11T03:18:00Z,29.5150,-94.5133,1.718,1111122 
TCOON,ioos:station:TCOON:518:1,2017-09-11T04:18:00Z,29.5150,-94.5133,1.719,1111122 
TCOON,ioos:station:TCOON:518:1,2017-09-11T05:18:00Z,29.5150,-94.5133,1.707,1111122 
TCOON,ioos:station:TCOON:518:1,2017-09-11T06:18:00Z,29.5150,-94.5133,1.692,1111122 
TCOON,ioos:station:TCOON:518:1,2017-09-11T07:18:00Z,29.5150,-94.5133,1.679,1111122 
TCOON,ioos:station:TCOON:518:1,2017-09-11T08:18:00Z,29.5150,-94.5133,1.673,1111122 
TCOON,ioos:station:TCOON:518:1,2017-09-11T09:18:00Z,29.5150,-94.5133,1.699,1111122 
TCOON,ioos:station:TCOON:518:1,2017-09-11T10:18:00Z,29.5150,-94.5133,1.72,1111122 
TCOON,ioos:station:TCOON:518:1,2017-09-11T11:18:00Z,29.5150,-94.5133,1.722,1111122 
TCOON,ioos:station:TCOON:518:1,2017-09-11T12:18:00Z,29.5150,-94.5133,1.751,1111122 
TCOON,ioos:station:TCOON:518:1,2017-09-11T13:18:00Z,29.5150,-94.5133,1.78,1111122 
TCOON,ioos:station:TCOON:518:1,2017-09-11T14:18:00Z,29.5150,-94.5133,1.786,1111122 
TCOON,ioos:station:TCOON:518:1,2017-09-11T15:18:00Z,29.5150,-94.5133,1.77,1111122 
TCOON,ioos:station:TCOON:518:1,2017-09-11T16:18:00Z,29.5150,-94.5133,1.775,1111122 
TCOON,ioos:station:TCOON:518:1,2017-09-11T17:18:00Z,29.5150,-94.5133,1.742,1111122 
TCOON,ioos:station:TCOON:518:1,2017-09-11T18:18:00Z,29.5150,-94.5133,1.67,1111122 
TCOON,ioos:station:TCOON:518:1,2017-09-11T19:18:00Z,29.5150,-94.5133,1.6,1111122 
TCOON,ioos:station:TCOON:518:1,2017-09-11T20:18:00Z,29.5150,-94.5133,1.552,1111122 
TCOON,ioos:station:TCOON:518:1,2017-09-11T21:18:00Z,29.5150,-94.5133,1.473,1111122 
TCOON,ioos:station:TCOON:518:1,2017-09-11T22:18:00Z,29.5150,-94.5133,1.502,1111122 
TCOON,ioos:station:TCOON:518:1,2017-09-11T23:18:00Z,29.5150,-94.5133,1.498,1111122 
TCOON,ioos:station:TCOON:518:1,2017-09-12T00:18:00Z,29.5150,-94.5133,1.508,1111122 
TCOON,ioos:station:TCOON:518:1,2017-09-12T01:18:00Z,29.5150,-94.5133,1.549,1111122 
TCOON,ioos:station:TCOON:518:1,2017-09-12T02:18:00Z,29.5150,-94.5133,1.621,1111122 
TCOON,ioos:station:TCOON:518:1,2017-09-12T03:18:00Z,29.5150,-94.5133,1.64,1111122 
TCOON,ioos:station:TCOON:518:1,2017-09-12T04:18:00Z,29.5150,-94.5133,1.646,1111122 
TCOON,ioos:station:TCOON:518:1,2017-09-12T05:18:00Z,29.5150,-94.5133,1.656,1111122 
TCOON,ioos:station:TCOON:518:1,2017-09-12T06:18:00Z,29.5150,-94.5133,1.709,1111122 
TCOON,ioos:station:TCOON:518:1,2017-09-12T07:18:00Z,29.5150,-94.5133,1.728,1111122 
TCOON,ioos:station:TCOON:518:1,2017-09-12T08:18:00Z,29.5150,-94.5133,1.719,1111122 
TCOON,ioos:station:TCOON:518:1,2017-09-12T09:18:00Z,29.5150,-94.5133,1.706,1111122 
TCOON,ioos:station:TCOON:518:1,2017-09-12T10:18:00Z,29.5150,-94.5133,1.711,1111122 
TCOON,ioos:station:TCOON:518:1,2017-09-12T11:18:00Z,29.5150,-94.5133,1.7,1111122 
TCOON,ioos:station:TCOON:518:1,2017-09-12T12:18:00Z,29.5150,-94.5133,1.696,1111122 
TCOON,ioos:station:TCOON:518:1,2017-09-12T13:18:00Z,29.5150,-94.5133,1.666,1111122 
TCOON,ioos:station:TCOON:518:1,2017-09-12T14:18:00Z,29.5150,-94.5133,1.664,1111122 
TCOON,ioos:station:TCOON:518:1,2017-09-12T15:18:00Z,29.5150,-94.5133,1.654,1111122 
TCOON,ioos:station:TCOON:518:1,2017-09-12T16:18:00Z,29.5150,-94.5133,1.634,1111122 
TCOON,ioos:station:TCOON:518:1,2017-09-12T17:18:00Z,29.5150,-94.5133,1.585,1111122 
TCOON,ioos:station:TCOON:518:1,2017-09-12T18:18:00Z,29.5150,-94.5133,1.514,1111122 
TCOON,ioos:station:TCOON:518:1,2017-09-12T19:18:00Z,29.5150,-94.5133,1.425,1111122 
TCOON,ioos:station:TCOON:518:1,2017-09-12T20:18:00Z,29.5150,-94.5133,1.322,1111122 
TCOON,ioos:station:TCOON:518:1,2017-09-12T21:18:00Z,29.5150,-94.5133,1.298,1111122 
TCOON,ioos:station:TCOON:518:1,2017-09-12T22:18:00Z,29.5150,-94.5133,1.236,1111122 
TCOON,ioos:station:TCOON:518:1,2017-09-12T23:18:00Z,29.5150,-94.5133,1.23,1111122 
TCOON,ioos:station:TCOON:518:1,2017-09-13T00:18:00Z,29.5150,-94.5133,1.236,1111122 
TCOON,ioos:station:TCOON:518:1,2017-09-13T01:18:00Z,29.5150,-94.5133,1.271,1111122 
TCOON,ioos:station:TCOON:518:1,2017-09-13T02:18:00Z,29.5150,-94.5133,1.309,1111122 
TCOON,ioos:station:TCOON:518:1,2017-09-13T03:18:00Z,29.5150,-94.5133,1.374,1111122 
TCOON,ioos:station:TCOON:518:1,2017-09-13T04:18:00Z,29.5150,-94.5133,1.434,1111122 
TCOON,ioos:station:TCOON:518:1,2017-09-13T05:18:00Z,29.5150,-94.5133,1.485,1111122 
TCOON,ioos:station:TCOON:518:1,2017-09-13T06:18:00Z,29.5150,-94.5133,1.554,1111122 
TCOON,ioos:station:TCOON:518:1,2017-09-13T07:18:00Z,29.5150,-94.5133,1.6,1111122 
TCOON,ioos:station:TCOON:518:1,2017-09-13T08:18:00Z,29.5150,-94.5133,1.631,1111122 
TCOON,ioos:station:TCOON:518:1,2017-09-13T09:18:00Z,29.5150,-94.5133,1.636,1111122 
TCOON,ioos:station:TCOON:518:1,2017-09-13T10:18:00Z,29.5150,-94.5133,1.625,1111122 
TCOON,ioos:station:TCOON:518:1,2017-09-13T11:18:00Z,29.5150,-94.5133,1.619,1111122 
TCOON,ioos:station:TCOON:518:1,2017-09-13T12:18:00Z,29.5150,-94.5133,1.636,1111122 
TCOON,ioos:station:TCOON:518:1,2017-09-13T13:18:00Z,29.5150,-94.5133,1.615,1111122 
TCOON,ioos:station:TCOON:518:1,2017-09-13T14:18:00Z,29.5150,-94.5133,1.565,1111122 
TCOON,ioos:station:TCOON:518:1,2017-09-13T15:18:00Z,29.5150,-94.5133,1.531,1111122 
TCOON,ioos:station:TCOON:518:1,2017-09-13T16:18:00Z,29.5150,-94.5133,1.511,1111122 
TCOON,ioos:station:TCOON:518:1,2017-09-13T17:18:00Z,29.5150,-94.5133,1.468,1111122 
TCOON,ioos:station:TCOON:518:1,2017-09-13T18:18:00Z,29.5150,-94.5133,1.4,1111122 
TCOON,ioos:station:TCOON:518:1,2017-09-13T19:18:00Z,29.5150,-94.5133,1.333,1111122 
TCOON,ioos:station:TCOON:518:1,2017-09-13T20:18:00Z,29.5150,-94.5133,1.268,1111122 
TCOON,ioos:station:TCOON:518:1,2017-09-13T21:18:00Z,29.5150,-94.5133,1.223,1111122 
TCOON,ioos:station:TCOON:518:1,2017-09-13T22:18:00Z,29.5150,-94.5133,1.184,1111122 
TCOON,ioos:station:TCOON:518:1,2017-09-13T23:18:00Z,29.5150,-94.5133,1.135,1111122 
TCOON,ioos:station:TCOON:518:1,2017-09-14T00:18:00Z,29.5150,-94.5133,1.093,1111122 
TCOON,ioos:station:TCOON:518:1,2017-09-14T01:18:00Z,29.5150,-94.5133,1.089,1111122 
TCOON,ioos:station:TCOON:518:1,2017-09-14T02:18:00Z,29.5150,-94.5133,1.104,1111122 
TCOON,ioos:station:TCOON:518:1,2017-09-14T03:18:00Z,29.5150,-94.5133,1.165,1111122 
TCOON,ioos:station:TCOON:518:1,2017-09-14T04:18:00Z,29.5150,-94.5133,1.247,1111122 
TCOON,ioos:station:TCOON:518:1,2017-09-14T05:18:00Z,29.5150,-94.5133,1.345,1111122 
TCOON,ioos:station:TCOON:518:1,2017-09-14T06:18:00Z,29.5150,-94.5133,1.427,1111122 
TCOON,ioos:station:TCOON:518:1,2017-09-14T07:18:00Z,29.5150,-94.5133,1.491,1111122 
TCOON,ioos:station:TCOON:518:1,2017-09-14T08:18:00Z,29.5150,-94.5133,1.558,1111122 
TCOON,ioos:station:TCOON:518:1,2017-09-14T09:18:00Z,29.5150,-94.5133,1.57,1111122 
TCOON,ioos:station:TCOON:518:1,2017-09-14T10:18:00Z,29.5150,-94.5133,1.553,1111122 